FW2297 Weather Reports


time (UTC)temp
C
wind
direction
speed
KPH
gust
KPH
rain 1hr
cm
rain 24hr
cm
rain mn
cm
humidity
%
barometer
mb
20260507161555 12 289 0.0 20.9 0.00 1.19 0.03 51 1006.3
20260507161051 12 311 3.2 20.9 0.00 1.19 0.03 52 1006.7
20260507160557 11 0 1.6 16.1 0.00 1.19 0.03 57 1006.8
20260507160056 11 263 0.0 12.9 0.00 1.19 0.03 61 1006.8
20260507155549 10 0 0.0 20.9 0.00 1.19 0.03 60 1006.9
20260507155050 11 0 0.0 20.9 0.00 1.19 0.03 57 1006.9
20260507154553 11 304 1.6 20.9 0.00 1.19 0.03 58 1006.9
20260507154051 11 0 0.0 12.9 0.00 1.19 0.03 56 1006.8
20260507153550 11 0 0.0 8.0 0.00 1.19 0.03 61 1006.9
20260507153054 11 0 0.0 6.4 0.00 1.19 0.03 68 1006.9
20260507152550 10 0 0.0 6.4 0.00 1.19 0.03 73 1006.8
20260507152048 9 0 0.0 6.4 0.00 1.19 0.03 76 1007.0
20260507151554 9 0 0.0 19.3 0.00 1.19 0.03 74 1007.1
20260507151048 9 0 0.0 19.3 0.00 1.19 0.03 71 1007.1
20260507150548 10 0 1.6 19.3 0.00 1.19 0.03 68 1007.3
20260507150100 10 0 0.0 22.5 0.00 1.19 0.03 66 1007.1
20260507145557 10 293 3.2 22.5 0.00 1.19 0.03 66 1007.0
20260507145051 10 0 0.0 6.4 0.00 1.19 0.03 67 1007.0
20260507144615 10 0 0.0 4.8 0.00 1.19 0.03 66 1007.0
20260507144054 10 0 0.0 3.2 0.00 1.19 0.03 67 1007.1
20260507143552 10 0 0.0 1.6 0.00 1.19 0.03 66 1007.0
20260507143104 10 0 0.0 4.8 0.00 1.19 0.03 71 1006.9
20260507142551 9 0 0.0 4.8 0.00 1.19 0.03 71 1007.1
20260507142055 9 0 0.0 0.0 0.00 1.19 0.03 74 1007.1
20260507141622 9 0 0.0 0.0 0.00 1.19 0.03 73 1007.0
20260507141051 9 0 0.0 0.0 0.00 1.19 0.03 74 1006.9
20260507140552 9 0 0.0 1.6 0.00 1.19 0.03 76 1007.1
20260507140058 8 0 0.0 1.6 0.00 1.19 0.03 75 1007.1
20260507135553 8 0 0.0 1.6 0.00 1.19 0.03 76 1007.0
20260507135052 8 0 0.0 1.6 0.00 1.19 0.03 77 1007.0
20260507134555 8 0 0.0 4.8 0.00 1.19 0.03 76 1007.0
20260507134052 8 0 0.0 8.0 0.00 1.19 0.03 76 1007.1
20260507133552 8 0 0.0 8.0 0.00 1.19 0.03 77 1007.2
20260507133059 8 321 0.0 1.6 0.00 1.19 0.03 77 1007.2
20260507132552 8 0 0.0 8.0 0.00 1.19 0.03 78 1007.3
20260507132053 8 0 0.0 8.0 0.00 1.19 0.03 78 1007.1
20260507131559 8 0 0.0 4.8 0.00 1.19 0.03 79 1007.4
20260507131052 8 0 0.0 4.8 0.00 1.19 0.03 78 1007.3
20260507130554 8 0 0.0 14.5 0.00 1.19 0.03 77 1007.5
20260507130110 8 0 1.6 14.5 0.00 1.19 0.03 77 1007.5
20260507125552 9 0 0.0 6.4 0.00 1.19 0.03 77 1007.4
20260507125049 9 0 0.0 6.4 0.00 1.19 0.03 74 1007.4
20260507124601 9 0 0.0 11.3 0.00 1.19 0.03 76 1007.3
20260507124052 9 0 0.0 11.3 0.00 1.19 0.03 77 1007.2
20260507123549 8 0 0.0 0.0 0.00 1.19 0.03 79 1007.2
20260507123058 8 0 0.0 4.8 0.00 1.19 0.03 78 1007.1
20260507122554 8 0 0.0 4.8 0.00 1.19 0.03 81 1007.1
20260507122052 8 0 0.0 0.0 0.00 1.19 0.03 80 1007.1
20260507121555 8 0 0.0 0.0 0.00 1.19 0.03 80 1007.0
20260507121052 8 0 0.0 0.0 0.00 1.19 0.03 81 1007.2
20260507120551 8 0 0.0 0.0 0.00 1.19 0.03 81 1007.3
20260507120057 8 0 0.0 4.8 0.00 1.19 0.03 83 1007.3
20260507115551 7 0 0.0 4.8 0.00 1.19 0.03 84 1007.4
20260507115052 7 0 0.0 4.8 0.00 1.19 0.03 85 1007.4
20260507114557 7 0 0.0 0.0 0.00 1.19 0.03 86 1007.4
20260507114052 7 0 0.0 0.0 0.00 1.19 0.03 86 1007.2
20260507113552 7 0 0.0 0.0 0.00 1.19 0.03 87 1007.4
20260507113105 6 0 0.0 4.8 0.00 1.19 0.03 89 1007.4
20260507112551 6 0 0.0 4.8 0.00 1.19 0.03 90 1007.3
20260507112051 6 0 0.0 3.2 0.00 1.19 0.03 91 1007.4
20260507111559 6 0 0.0 0.0 0.00 1.19 0.03 91 1007.3
20260507111051 5 0 0.0 0.0 0.00 1.19 0.03 92 1007.2
20260507110552 5 0 0.0 0.0 0.00 1.19 0.03 92 1007.3
20260507105551 5 0 0.0 0.0 0.00 1.19 0.03 93 1007.2
20260507105056 4 0 0.0 0.0 0.00 1.19 0.03 92 1007.4
20260507104600 4 0 0.0 0.0 0.00 1.19 0.03 92 1007.4
20260507104052 4 0 0.0 0.0 0.00 1.19 0.03 92 1007.1
20260507103551 4 0 0.0 0.0 0.00 1.19 0.03 92 1007.2
20260507103104 4 0 0.0 0.0 0.00 1.19 0.03 92 1006.8
20260507102555 4 0 0.0 0.0 0.00 1.19 0.03 91 1006.8
20260507102052 4 0 0.0 0.0 0.00 1.19 0.03 91 1006.9
20260507101556 4 0 0.0 0.0 0.00 1.19 0.03 91 1007.1
20260507101051 5 0 0.0 0.0 0.00 1.19 0.03 90 1007.1
20260507100551 5 0 0.0 3.2 0.00 1.19 0.03 90 1007.1
20260507100055 5 0 0.0 3.2 0.00 1.19 0.03 90 1007.2
20260507095549 5 0 0.0 0.0 0.00 1.19 0.03 90 1007.0
20260507095052 5 0 0.0 0.0 0.00 1.19 0.03 90 1007.1
20260507094555 5 0 0.0 0.0 0.00 1.19 0.03 90 1007.1
20260507094051 5 0 0.0 0.0 0.00 1.19 0.03 90 1007.0
20260507093551 5 0 0.0 0.0 0.00 1.19 0.03 90 1007.3
20260507093059 5 0 0.0 0.0 0.00 1.19 0.03 90 1007.4
20260507092551 5 0 0.0 0.0 0.00 1.19 0.03 91 1007.4
20260507092051 5 0 0.0 0.0 0.00 1.19 0.03 91 1007.1
20260507091600 5 0 0.0 0.0 0.00 1.19 0.03 91 1007.0
20260507091049 5 0 0.0 8.0 0.00 1.19 0.03 91 1007.1
20260507090550 5 0 0.0 8.0 0.00 1.19 0.03 91 1007.0
20260507090057 5 0 0.0 8.0 0.00 1.19 0.03 91 1007.0
20260507085552 5 0 0.0 0.0 0.00 1.19 0.03 92 1007.0
20260507085051 5 0 0.0 0.0 0.00 1.19 0.03 92 1007.3
20260507084554 5 0 0.0 0.0 0.00 1.19 0.03 92 1007.2
20260507084051 5 0 0.0 0.0 0.00 1.19 0.03 91 1006.9
20260507083552 5 0 0.0 0.0 0.00 1.19 0.03 91 1006.9
20260507083055 5 0 0.0 0.0 0.00 1.19 0.03 92 1006.8
20260507082555 5 0 0.0 0.0 0.00 1.19 0.03 91 1006.7
20260507082051 5 0 0.0 0.0 0.00 1.19 0.03 91 1006.8
20260507081557 6 0 0.0 0.0 0.00 1.19 0.03 91 1007.0
20260507081051 6 0 0.0 0.0 0.00 1.19 0.03 91 1006.8
20260507080554 6 0 0.0 0.0 0.00 1.19 0.03 90 1006.9
20260507080052 6 0 0.0 0.0 0.00 1.19 0.03 90 1006.8
20260507075552 6 0 0.0 0.0 0.00 1.19 0.03 90 1006.9
20260507075052 6 0 0.0 0.0 0.00 1.19 0.03 90 1007.0
20260507074553 6 0 0.0 0.0 0.00 1.19 0.03 90 1006.7
20260507074054 6 0 0.0 0.0 0.00 1.19 0.03 90 1006.5
20260507073551 6 0 0.0 0.0 0.00 1.19 0.03 90 1006.4
20260507073101 6 0 0.0 0.0 0.00 1.19 0.03 90 1006.1
20260507072551 6 0 0.0 0.0 0.00 1.19 0.03 90 1006.0
20260507072051 6 0 0.0 1.6 0.00 1.19 0.03 90 1006.1
20260507071556 6 0 0.0 6.4 0.03 1.19 0.03 91 1006.1
20260507071051 6 0 0.0 6.4 0.03 1.19 0.03 90 1006.1
20260507070552 6 0 0.0 6.4 0.03 1.19 0.03 91 1006.1
20260507065552 6 0 0.0 3.2 0.03 1.19 0.03 91 1006.3
20260507065052 6 0 0.0 3.2 0.03 1.19 0.03 91 1006.4
20260507064555 6 0 0.0 3.2 0.03 1.19 0.03 91 1006.4
20260507064052 6 0 0.0 8.0 0.03 1.19 0.03 91 1006.0
20260507063552 6 0 0.0 8.0 0.03 1.19 0.03 91 1006.3
20260507063056 6 0 0.0 16.1 0.03 1.19 0.03 91 1006.5
20260507062552 6 0 0.0 16.1 0.03 1.19 0.03 92 1006.2
20260507062052 6 0 0.0 8.0 0.03 1.19 0.03 92 1006.0
20260507061555 6 0 0.0 4.8 0.00 1.17 0.00 92 1006.1
20260507061052 6 0 0.0 4.8 0.00 1.17 0.00 92 1006.2
20260507060550 6 0 0.0 1.6 0.00 1.17 0.00 93 1006.3
20260507060058 6 0 0.0 0.0 0.00 1.17 0.00 93 1006.4
20260507055552 6 0 0.0 0.0 0.00 1.17 0.00 93 1006.6
20260507055052 6 0 0.0 0.0 0.00 1.17 0.00 93 1006.5
20260507054601 6 0 0.0 0.0 0.00 1.17 0.00 93 1006.4
20260507054050 6 0 0.0 0.0 0.00 1.17 0.00 93 1006.3
20260507053551 6 0 0.0 0.0 0.00 1.17 0.00 93 1006.3
20260507053058 6 0 0.0 0.0 0.00 1.17 0.00 93 1006.2
20260507052550 6 0 0.0 1.6 0.00 1.17 0.00 93 1006.5
20260507052050 6 0 0.0 1.6 0.00 1.17 0.00 93 1006.5
20260507051601 6 0 0.0 1.6 0.00 1.17 0.00 93 1006.5
20260507051050 6 0 0.0 0.0 0.00 1.17 0.00 93 1006.4
20260507050551 6 0 0.0 4.8 0.00 1.17 0.00 93 1006.6
20260507050057 7 0 0.0 4.8 0.00 1.17 0.00 93 1006.1
20260507045554 7 0 0.0 0.0 0.00 1.17 0.00 93 1006.3
20260507045051 7 0 0.0 0.0 0.00 1.17 0.00 93 1006.2
20260507044600 7 0 0.0 0.0 0.00 1.17 0.00 93 1006.1
20260507044051 7 0 0.0 0.0 0.00 1.17 0.00 93 1006.1
20260507043551 7 0 0.0 0.0 0.00 1.17 0.00 93 1006.2
20260507043056 7 0 0.0 0.0 0.00 1.17 0.00 93 1006.0
20260507042552 7 0 0.0 0.0 0.00 1.17 0.00 93 1005.8
20260507042050 7 0 0.0 6.4 0.00 1.17 0.00 93 1005.8
20260507041551 7 0 0.0 6.4 0.00 1.17 0.00 93 1005.9
20260507041050 7 0 0.0 6.4 0.00 1.17 0.00 93 1005.7
20260507040550 7 0 0.0 6.4 0.03 1.17 0.00 93 1005.8
20260507040058 7 0 0.0 8.0 0.03 1.17 0.00 93 1006.0
20260507035550 7 0 0.0 8.0 0.03 1.17 1.17 93 1006.0
20260507035051 7 0 0.0 8.0 0.03 1.17 1.17 93 1006.2
20260507034608 7 0 0.0 9.7 0.03 1.17 1.17 93 1006.2
20260507034050 7 0 0.0 9.7 0.03 1.17 1.17 93 1006.4
20260507033554 7 0 1.6 9.7 0.03 1.17 1.17 93 1006.4
20260507033054 7 0 0.0 6.4 0.03 1.17 1.17 93 1006.2
20260507032555 7 309 0.0 1.6 0.05 1.17 1.17 93 1006.2
20260507032051 7 0 0.0 1.6 0.05 1.17 1.17 93 1006.1
20260507031551 7 0 0.0 1.6 0.05 1.17 1.17 93 1005.9
20260507031051 7 0 0.0 0.0 0.05 1.17 1.17 93 1005.8
20260507030553 7 0 0.0 0.0 0.03 1.14 1.14 93 1006.1
20260507025551 7 0 0.0 9.7 0.03 1.14 1.14 93 1006.1
20260507025052 7 0 0.0 9.7 0.03 1.14 1.14 93 1006.2
20260507024559 7 44 0.0 9.7 0.03 1.14 1.14 93 1006.1
20260507024050 7 0 0.0 6.4 0.03 1.14 1.14 93 1006.2
20260507023551 7 0 0.0 8.0 0.05 1.14 1.14 93 1006.2
20260507023053 7 304 0.0 8.0 0.05 1.14 1.14 93 1006.1
20260507022552 7 0 0.0 1.6 0.05 1.12 1.12 92 1006.0
20260507022052 7 0 0.0 1.6 0.05 1.12 1.12 92 1006.1
20260507021557 7 0 0.0 6.4 0.05 1.12 1.12 93 1006.2
20260507021051 7 0 0.0 6.4 0.05 1.12 1.12 93 1006.0
20260507020552 8 332 0.0 6.4 0.08 1.12 1.12 92 1006.0
20260507020104 8 0 0.0 14.5 0.08 1.12 1.12 92 1005.9
20260507015551 8 0 0.0 14.5 0.08 1.12 1.12 93 1006.0
20260507015050 8 0 0.0 9.7 0.08 1.12 1.12 93 1005.9
20260507014553 8 0 0.0 3.2 0.08 1.12 1.12 93 1006.1
20260507014051 8 0 0.0 6.4 0.08 1.12 1.12 93 1005.8
20260507013549 8 0 0.0 6.4 0.05 1.09 1.09 93 1006.0
20260507013101 8 0 0.0 6.4 0.05 1.09 1.09 93 1005.8
20260507012552 8 0 0.0 3.2 0.03 1.07 1.07 93 1005.7
20260507012052 8 0 0.0 11.3 0.03 1.07 1.07 93 1005.3
20260507011555 9 0 0.0 11.3 0.03 1.07 1.07 92 1005.4
20260507011052 9 0 0.0 3.2 0.00 1.04 1.04 93 1005.4
20260507010552 9 311 0.0 3.2 0.00 1.04 1.04 93 1005.2
20260507010054 9 0 0.0 4.8 0.00 1.04 1.04 93 1005.3
20260507005552 10 0 0.0 4.8 0.00 1.04 1.04 93 1005.1
20260507005051 10 0 0.0 4.8 0.03 1.04 1.04 93 1005.2
20260507004559 10 0 0.0 3.2 0.03 1.04 1.04 93 1005.1
20260507004052 10 0 0.0 9.7 0.03 1.04 1.04 93 1005.1
20260507003555 10 0 0.0 9.7 0.03 1.04 1.04 93 1004.9
20260507003056 10 0 0.0 3.2 0.03 1.04 1.04 93 1004.7
20260507002548 10 0 0.0 8.0 0.03 1.04 1.04 92 1004.8
20260507002051 10 0 0.0 8.0 0.03 1.04 1.04 92 1004.8
20260507001554 11 0 0.0 8.0 0.03 1.04 1.04 92 1004.6
20260507001050 11 0 0.0 6.4 0.03 1.04 1.04 92 1004.4
20260507000552 11 0 0.0 6.4 0.03 1.04 1.04 92 1004.6
20260507000055 11 0 0.0 0.0 0.03 1.04 1.04 92 1004.4
20260506235550 11 0 0.0 0.0 0.05 1.04 1.04 92 1004.4
20260506235052 11 0 0.0 0.0 0.03 1.02 1.02 91 1004.3
20260506234555 11 0 0.0 0.0 0.03 1.02 1.02 91 1004.3
20260506234051 12 0 0.0 1.6 0.03 1.02 1.02 91 1004.0
20260506233552 12 0 0.0 1.6 0.03 1.02 1.02 92 1004.2
20260506233054 12 0 0.0 1.6 0.03 1.02 1.02 91 1003.9
20260506232554 12 0 0.0 6.4 0.03 1.02 1.02 91 1003.8
20260506232048 12 0 0.0 9.7 0.03 1.02 1.02 92 1003.8
20260506231556 13 0 0.0 9.7 0.03 1.02 1.02 92 1003.9
20260506231048 13 304 0.0 12.9 0.03 1.02 1.02 92 1003.8
20260506230552 13 0 0.0 12.9 0.05 1.02 1.02 92 1003.8
20260506230056 14 0 0.0 12.9 0.03 0.99 0.99 93 1003.7
20260506225551 15 0 0.0 8.0 0.03 1.02 0.99 94 1003.6
20260506225051 15 0 0.0 0.0 0.05 1.02 0.99 95 1003.5
20260506224606 15 0 0.0 0.0 0.08 1.02 0.99 95 1003.3
20260506224047 15 0 0.0 0.0 0.08 1.02 0.99 94 1003.3
20260506223550 15 0 0.0 0.0 0.10 1.02 0.99 94 1003.4
20260506223052 15 0 0.0 0.0 0.13 1.02 0.99 94 1003.4
20260506222550 15 0 0.0 0.0 0.15 1.02 0.99 94 1003.3
20260506222051 15 0 0.0 0.0 0.18 1.02 0.99 94 1003.4
20260506221554 15 0 0.0 0.0 0.18 1.02 0.99 94 1003.3
20260506221048 15 0 0.0 1.6 0.20 1.02 0.99 94 1003.4
20260506220548 15 0 0.0 8.0 0.18 0.99 0.97 94 1003.4
20260506220054 15 0 0.0 8.0 0.18 0.99 0.97 94 1003.3
20260506215548 15 0 0.0 3.2 0.20 1.07 0.97 94 1003.5
20260506215048 15 0 0.0 3.2 0.20 1.04 0.94 94 1003.4
20260506214609 15 0 0.0 1.6 0.18 1.02 0.91 94 1003.4
20260506214051 15 0 0.0 1.6 0.23 1.02 0.91 94 1003.5
20260506213548 15 0 0.0 3.2 0.23 0.99 0.89 94 1003.5
20260506213053 15 0 0.0 3.2 0.23 0.97 0.86 94 1003.6
20260506212548 15 0 0.0 3.2 0.23 0.94 0.84 94 1003.7
20260506212054 15 0 0.0 3.2 0.23 0.91 0.81 94 1003.7
20260506211554 15 0 0.0 3.2 0.23 0.91 0.81 94 1003.7
20260506211052 15 27 0.0 1.6 0.23 0.89 0.79 94 1003.6
20260506210551 15 0 0.0 1.6 0.23 0.89 0.79 94 1003.7
20260506210055 15 0 0.0 0.0 0.23 0.89 0.79 94 1003.8
20260506205551 15 0 0.0 0.0 0.20 0.86 0.76 94 1003.7
20260506205048 15 0 0.0 0.0 0.20 0.84 0.74 94 1003.9
20260506204604 15 0 0.0 0.0 0.20 0.84 0.74 93 1003.9
20260506204048 15 0 0.0 0.0 0.18 0.79 0.69 93 1004.0
20260506203548 15 0 0.0 1.6 0.15 0.76 0.66 93 1004.0
20260506203055 15 0 0.0 1.6 0.15 0.74 0.64 93 1004.2
20260506202548 15 0 0.0 4.8 0.13 0.71 0.61 93 1004.0
20260506202051 15 0 0.0 8.0 0.13 0.69 0.58 93 1004.0
20260506201555 15 0 0.0 8.0 0.13 0.69 0.58 93 1004.2
20260506201052 15 0 0.0 8.0 0.13 0.66 0.56 93 1004.3
20260506200550 15 0 0.0 3.2 0.13 0.66 0.56 93 1004.3
20260506200055 15 0 0.0 0.0 0.15 0.66 0.56 93 1004.3
20260506195551 15 0 0.0 0.0 0.15 0.66 0.56 94 1004.2
20260506195054 15 0 0.0 0.0 0.13 0.64 0.53 94 1004.4
20260506194606 15 0 0.0 0.0 0.15 0.64 0.53 94 1004.4
20260506194050 15 0 0.0 0.0 0.13 0.61 0.51 94 1004.5
20260506193551 15 0 0.0 9.7 0.15 0.61 0.51 94 1004.6
20260506193057 15 0 0.0 9.7 0.13 0.58 0.48 93 1004.7
20260506192551 15 0 0.0 0.0 0.15 0.58 0.48 93 1004.7
20260506192048 15 0 0.0 0.0 0.13 0.56 0.46 93 1004.6
20260506191552 15 0 0.0 0.0 0.10 0.53 0.43 93 1004.8
20260506191047 15 0 0.0 1.6 0.13 0.53 0.43 93 1004.8
20260506190550 15 0 0.0 1.6 0.13 0.53 0.43 93 1004.9
20260506190053 15 0 0.0 1.6 0.13 0.51 0.41 93 1004.7
20260506185547 15 0 0.0 4.8 0.15 0.51 0.41 93 1004.7
20260506185050 15 0 0.0 4.8 0.18 0.51 0.41 93 1004.8
20260506184557 15 0 0.0 4.8 0.15 0.48 0.38 94 1004.9
20260506184051 15 0 0.0 1.6 0.18 0.48 0.38 94 1005.0
20260506183552 15 0 0.0 8.0 0.18 0.46 0.36 93 1005.3
20260506183100 15 0 0.0 8.0 0.20 0.46 0.36 93 1005.1
20260506182551 15 96 0.0 3.2 0.20 0.43 0.33 93 1005.1
20260506182051 15 0 0.0 3.2 0.20 0.43 0.33 93 1005.2
20260506181552 15 0 0.0 6.4 0.23 0.43 0.33 93 1005.5
20260506181048 15 0 0.0 6.4 0.20 0.41 0.30 93 1005.4
20260506180548 15 0 0.0 6.4 0.23 0.41 0.30 92 1005.7
20260506180052 15 0 0.0 1.6 0.23 0.38 0.28 92 1005.6
20260506175548 15 0 0.0 1.6 0.20 0.36 0.25 92 1005.7
20260506175054 15 0 0.0 0.0 0.20 0.33 0.23 91 1005.8
20260506174552 15 0 0.0 0.0 0.20 0.33 0.23 91 1005.8
20260506174052 16 0 0.0 0.0 0.18 0.30 0.20 90 1005.8
20260506173551 16 0 0.0 0.0 0.18 0.28 0.18 90 1005.8
20260506173054 16 0 0.0 0.0 0.15 0.25 0.15 89 1005.9
20260506172550 16 0 0.0 0.0 0.13 0.23 0.13 88 1006.0
20260506172051 16 0 0.0 0.0 0.13 0.23 0.13 88 1006.1
20260506171557 16 0 0.0 0.0 0.10 0.20 0.10 87 1006.0
20260506171051 16 0 0.0 0.0 0.10 0.20 0.10 87 1006.2
20260506170552 16 0 0.0 0.0 0.08 0.18 0.08 86 1006.2
20260506170059 16 0 0.0 0.0 0.05 0.15 0.05 86 1006.2
20260506165548 16 0 0.0 0.0 0.05 0.15 0.05 86 1006.1
20260506165241 16 0 0.0 0.0 0.03 0.13 0.03 86 1006.2
20260506164558 16 0 0.0 0.0 0.03 0.13 0.03 85 1006.3
20260506164053 16 0 0.0 0.0 0.03 0.13 0.03 84 1006.1
20260506163553 16 0 0.0 0.0 0.00 0.10 0.00 83 1006.3
20260506163105 16 0 0.0 0.0 0.00 0.10 0.00 82 1006.3
20260506162551 16 0 0.0 0.0 0.00 0.10 0.00 82 1006.3
20260506162051 16 0 0.0 0.0 0.00 0.10 0.00 82 1006.2